Weather History for Seldovia, AK

Change the Weather History Date:

Sunday, November 10, 2013

  Actual Average (PAHO) Record (PAHO)
Temperature  
Mean Temperature 42 °F -  
Max Temperature 46 °F 36 °F 58 °F (1936)
Min Temperature 37 °F 26 °F 1 °F (1989)
Degree Days  
Heating Degree Days 24    
Moisture  
Dew Point 38 °F    
Average Humidity 88    
Maximum Humidity 96    
Minimum Humidity 76    
Precipitation  
Precipitation 0.41 in - - ()
Sea Level Pressure  
Sea Level Pressure 29.83 in    
Wind  
Wind Speed 8 mph (South)    
Max Wind Speed 15 mph    
Max Gust Speed 26 mph    
Visibility 9 miles    
Events Rain    
Averages and records for this station are not official NWS values.
T = Trace of Precipitation, MM = Missing Value Source: NWS Daily Summary

Daily Weather History Graph

Daily Weather History Graph

Search for Another Location

Airport:

Trip Planner

Search our weather history database for the weather conditions in past years. The results will help you decide how hot, cold, wet, or windy it might be!

Date:

Astronomy

Nov. 10, 2013 Rise Set
Actual Time 8:50 AM AKST 4:50 PM AKST
Civil Twilight 8:03 AM AKST 5:37 PM AKST
Nautical Twilight 7:13 AM AKST 6:27 PM AKST
Astronomical Twilight 6:25 AM AKST 7:14 PM AKST
Moon 2:33 PM AKST (11/10) No Moon Set
Length of Visible Light 9h 33m
Length of Day
8h 00m
First Quarter, 57% of the Moon is Illuminated
Nov 10
First Quarter
Nov 17
Full
Nov 25
Last Quarter
Dec 2
New
Dec 9
First Quarter

Hourly Weather History & Observations

Time (AKST) Temp. Windchill Dew Point Humidity Pressure Visibility Wind Dir Wind Speed Gust Speed Precip Events Conditions
12:04 AM 44.6 °F 38.8 °F 39.2 °F 81% 30.04 in 10.0 mi South 11.5 mph 20.7 mph 0.00 in Rain Light Rain
12:24 AM 46.4 °F 40.1 °F 39.2 °F 76% 30.03 in 10.0 mi South 15.0 mph 23.0 mph 0.00 in Rain Light Rain
12:53 AM 45.0 °F 38.9 °F 39.0 °F 80% 30.02 in 10.0 mi SSE 12.7 mph 26.5 mph 0.01 in Rain Light Rain
1:53 AM 44.1 °F 38.1 °F 39.0 °F 82% 30.00 in 10.0 mi South 11.5 mph 21.9 mph 0.00 in Rain Light Rain
2:53 AM 45.0 °F 39.7 °F 39.0 °F 80% 29.98 in 10.0 mi South 10.4 mph - 0.00 in   Overcast
3:53 AM 46.0 °F 41.9 °F 39.0 °F 76% 29.95 in 10.0 mi South 8.1 mph - N/A   Overcast
4:53 AM 44.1 °F 38.6 °F 39.0 °F 82% 29.91 in 10.0 mi South 10.4 mph - 0.01 in Rain Light Rain
5:53 AM 43.0 °F 38.2 °F 41.0 °F 93% 29.89 in 9.0 mi South 8.1 mph - 0.05 in Rain Light Rain
6:53 AM 43.0 °F 40.3 °F 41.0 °F 93% 29.86 in 8.0 mi Variable 4.6 mph - 0.04 in Rain Light Rain
7:53 AM 43.0 °F 38.8 °F 39.9 °F 89% 29.85 in 6.0 mi South 6.9 mph - 0.07 in Rain Rain
8:53 AM 42.1 °F 38.4 °F 39.9 °F 92% 29.81 in 9.0 mi Variable 5.8 mph - 0.05 in Rain Light Rain
9:53 AM 42.1 °F 38.4 °F 39.9 °F 92% 29.78 in 10.0 mi South 5.8 mph - 0.01 in Rain Light Rain
10:53 AM 44.1 °F 40.8 °F 41.0 °F 89% 29.76 in 10.0 mi South 5.8 mph - 0.01 in Rain Light Rain
11:53 AM 44.1 °F 40.1 °F 41.0 °F 89% 29.75 in 10.0 mi South 6.9 mph - 0.01 in Rain Light Rain
12:30 PM 42.8 °F 41.1 °F 41.0 °F 93% 29.76 in 6.0 mi East 3.5 mph - 0.02 in Rain Light Rain
12:42 PM 42.8 °F - 41.0 °F 93% 29.76 in 5.0 mi Calm Calm - 0.02 in Rain Light Rain
12:53 PM 42.1 °F - 41.0 °F 96% 29.76 in 5.0 mi Calm Calm - 0.03 in Rain Light Rain
1:19 PM 42.8 °F - 41.0 °F 93% 29.76 in 5.0 mi Calm Calm - 0.04 in Rain Light Rain
1:39 PM 42.8 °F - 39.2 °F 87% 29.76 in 6.0 mi Calm Calm - 0.06 in Rain Light Rain
1:46 PM 42.8 °F - 39.2 °F 87% 29.76 in 6.0 mi Calm Calm - 0.06 in Rain Light Rain
1:53 PM 41.0 °F - 39.9 °F 96% 29.76 in 6.0 mi Calm Calm - 0.07 in Rain Light Rain
2:53 PM 39.9 °F 35.8 °F 37.9 °F 93% 29.76 in 8.0 mi South 5.8 mph - 0.03 in Rain Light Rain
3:16 PM 39.2 °F 37.0 °F 37.4 °F 93% 29.76 in 10.0 mi South 3.5 mph - 0.00 in Rain Light Rain
3:53 PM 39.9 °F 37.8 °F 37.0 °F 89% 29.77 in 10.0 mi Variable 3.5 mph - 0.00 in Rain Light Rain
4:53 PM 39.0 °F - 37.0 °F 93% 29.77 in 10.0 mi Calm Calm - 0.00 in   Overcast
5:41 PM 39.2 °F 34.2 °F 35.6 °F 87% 29.78 in 10.0 mi South 6.9 mph - N/A   Overcast
5:53 PM 39.9 °F 37.8 °F 35.1 °F 83% 29.79 in 10.0 mi SSW 3.5 mph - N/A   Overcast
6:53 PM 39.9 °F 36.7 °F 34.0 °F 79% 29.80 in 10.0 mi South 4.6 mph - 0.00 in Rain Light Rain
7:34 PM 39.2 °F 35.9 °F 35.6 °F 87% 29.79 in 10.0 mi Variable 4.6 mph - 0.01 in Rain Light Rain
7:53 PM 39.9 °F 35.1 °F 34.0 °F 79% 29.79 in 10.0 mi South 6.9 mph - 0.01 in   Overcast
8:08 PM 39.2 °F 33.0 °F 35.6 °F 87% 29.80 in 10.0 mi North 9.2 mph - N/A   Overcast
8:25 PM 39.2 °F 32.5 °F 35.6 °F 87% 29.81 in 7.0 mi North 10.4 mph 16.1 mph 0.00 in Rain Light Rain
8:46 PM 39.2 °F 32.5 °F 35.6 °F 87% 29.82 in 10.0 mi NNE 10.4 mph - 0.01 in Rain Light Rain
8:53 PM 37.9 °F 31.5 °F 35.1 °F 89% 29.82 in 10.0 mi North 9.2 mph - 0.01 in Rain Light Rain
9:05 PM 37.4 °F 32.1 °F 35.6 °F 93% 29.82 in 10.0 mi North 6.9 mph - 0.00 in   Overcast
9:53 PM 39.0 °F 35.7 °F 35.1 °F 86% 29.83 in 10.0 mi Variable 4.6 mph - 0.00 in   Overcast
10:53 PM 37.9 °F 35.5 °F 35.1 °F 89% 29.85 in 10.0 mi Variable 3.5 mph - N/A   Overcast
11:11 PM 37.4 °F 34.9 °F 33.8 °F 87% 29.85 in 10.0 mi NNE 3.5 mph - N/A   Overcast
11:53 PM 37.0 °F - 34.0 °F 89% 29.87 in 10.0 mi Calm Calm - N/A   Overcast